Location: Carri�res
(48.9069°N, 2.1792°E)
Time: 21:10:21
(UTC+00:00)

USA 281 - Pass Details

Date: 17 January 2021
Orbit: 1072 x 1086 km, 106.0° (Epoch: 26 February)

Event Time Altitude Azimuth Distance (km) Brightness Sun altitude
Exits shadow 18:41:51 25° 37° (NE) 2,022 4.3 -21.9°
Drops below altitude 10° 18:46:42 10° 350° (N) 2,942 5.5 -22.7°
Sets 18:49:39 0° 338° (NNW) 3,900 6.4 -23.1°
